Weather Roundup
Issued by NWS

Home | Current Version | Previous Version | Graphics & Text | Print | Product List | Glossary Off
Versions: 1 2 3 4 5 6 7 8 9 10 11 12 13 14 15 16 17 18 19 20 21 22 23 24 25 26 27 28 29 30 31 32 33 34 35 36 37 38 39 40 41 42 43 44 45 46 47 48 49 50

000
NZUS93 KARX 271110
HRRWXR

CURRENT HOURLY OBSERVATIONS ACROSS
MUCH OF THE UPPER MISSISSIPPI VALLEY
NATIONAL WEATHER SERVICE LA CROSSE WI
600 AM CDT FRI MAR 27 2015


...SOUTHEAST MINNESOTA...


CITY           SKY/WX    TMP DP  RH WIND       PRES   REMARKS
ROCHESTER      CLEAR     15   5  64 NW6       30.21R WCI   6
ROCHESTER/MAYO FAIR      18  10  70 W5        30.22R WCI  11
WINONA         CLEAR     19  14  79 NW5       30.25R WCI  13
AUSTIN         CLEAR     16   7  67 N3        30.21R
ALBERT LEA     CLEAR     16  10  79 N5        30.21S WCI   9
DODGE CENTER   CLEAR     16   5  62 N7        30.21R WCI   6
PRESTON        CLEAR     16   8  71 CALM      30.20R
OWATONNA       CLEAR      9   3  78 CALM      30.23R
FARIBAULT      CLEAR     12   7  79 CALM      30.24S
$$

...ELSEWHERE IN MINNESOTA...


CITY           SKY/WX    TMP DP  RH WIND       PRES   REMARKS
MINNEAPOLIS    FAIR      19   3  49 N7        30.26S WCI  10
INTNL FALLS    CLEAR      4   0  83 CALM      30.26R
DULUTH         CLEAR     11   3  70 N5        30.22R WCI   3
RED WING       CLEAR     19   7  58 NE3       30.25R
REDWOOD FALLS  CLEAR     20   8  60 N6        30.28R WCI  12
MANKATO        CLEAR     18   7  62 N7        30.24R WCI   8
WORTHINGTON    CLEAR     16   9  73 NW7       30.25R WCI   6
FAIRMONT       CLEAR     18  10  73 NW6       30.23R WCI   9
$$

...SOUTHWEST WISCONSIN...


CITY           SKY/WX    TMP DP  RH WIND       PRES   REMARKS
LA CROSSE      CLEAR     19   9  65 N3        30.23R
PRAIRIE DU CHI CLEAR     22   5  49 CALM      30.23R
BOSCOBEL       CLEAR     20   6  55 N5        30.22R WCI  13
LONE ROCK      CLEAR     18   5  57 N5        30.21R WCI  11
PLATTEVILLE    CLEAR     19   9  66 N10       30.18R WCI   7
FORT MC COY    CLEAR      9   6  87 CALM      30.22S
CAMP DOUGLAS   CLEAR     10   9  93 W5        30.20R WCI   2
VIROQUA        FAIR      15   7  69 N3        30.18R
WIS DELLS      CLEAR     15   6  67 NW3       30.19R
$$

...ELSEWHERE IN WISCONSIN...


CITY           SKY/WX    TMP DP  RH WIND       PRES   REMARKS
MILWAUKEE      PTCLDY    19   3  49 N12G22    30.14R WCI   7
MADISON        CLEAR     17   7  64 N7        30.18R WCI   8
GREEN BAY      CLEAR     18   9  68 N10       30.18R WCI   6
EAU CLAIRE     CLEAR     17   5  59 N5        30.23R WCI  10
BLACK RVR FLS  FAIR       6   2  84 CALM      30.22R
MEDFORD        PTCLDY     7   4  85 CALM      30.17S
WAUSAU         PTCLDY    13   7  77 N3        30.17R
WIS RAPIDS     CLEAR     15   6  67 N8        30.21R WCI   4
MARSHFIELD     CLEAR     15   7  70 NE7       30.18R WCI   5
RICE LAKE      CLEAR     17   7  66 N5        30.25S WCI   9
$$

...NORTHEAST IOWA...


CITY           SKY/WX    TMP DP  RH WIND       PRES   REMARKS
DECORAH        CLEAR     19   7  58 NE5       30.19S WCI  13
MASON CITY     CLEAR     17  13  84 N7        30.22R WCI   8
CHARLES CITY   CLEAR     19  14  79 N5        30.21R WCI  13
OELWEIN        CLEAR     21  16  79 NE9       30.19S WCI  11
$$

...ELSEWHERE IN IOWA...


CITY           SKY/WX    TMP DP  RH WIND       PRES   REMARKS
DES MOINES     PTCLDY    28  17  63 N9        30.20S WCI  19
IOWA CITY      CLOUDY    29  20  69 NW8       30.18R WCI  21
FORT DODGE     CLEAR     21  16  79 N6        30.22R WCI  14
$$

...NORTHERN ILLINOIS...


CITY           SKY/WX    TMP DP  RH WIND       PRES   REMARKS
CHICAGO-OHARE  LGT SNOW  24  19  81 NE12      30.10R WCI  13
CHICAGO-MIDWAY LGT SNOW  28  23  81 N16       30.10R FOG     WCI  16
MOLINE         CLOUDY    30  17  58 N8        30.14R WCI  22
ROCKFORD       PTCLDY    22   8  55 N16       30.17R WCI   8
PEORIA         MOCLDY    27  21  78 N3        30.13R
$$

NOTE: "FAIR" INDICATES FEW OR NO CLOUDS BELOW 12,000 FEET WITH NO
SIGNIFICANT WEATHER AND/OR OBSTRUCTIONS TO VISIBILITY. WIND
SPEEDS ARE IN MILES-PER-HOUR.



USA.gov is the U.S. government's official web portal to all federal, state and local government web resources and services.